FW6591 Weather Reports


time (UTC)temp
C
wind
direction
speed
KPH
gust
KPH
rain 1hr
cm
rain 24hr
cm
rain mn
cm
humidity
%
barometer
mb
20260505151559 11 110 6.4 14.5 0.00 0.08 0.08 93 1014.0
20260505130105 11 90 6.4 16.1 0.00 0.00 0.00 92 1015.3
20260505124556 11 131 4.8 14.5 0.00 0.00 0.00 91 1015.2
20260505123055 11 102 6.4 16.1 0.00 0.00 0.00 91 1015.3
20260505121608 11 132 6.4 16.1 0.00 0.00 0.00 90 1015.6
20260505120048 12 99 8.0 14.5 0.00 0.00 0.00 90 1015.7
20260505114545 12 133 8.0 14.5 0.00 0.00 0.00 91 1015.6
20260505113050 12 128 8.0 14.5 0.00 0.00 0.00 92 1015.8
20260505111549 12 136 4.8 14.5 0.00 0.00 0.00 92 1016.2
20260505101552 12 116 6.4 17.7 0.00 0.00 0.00 92 1017.1
20260505100053 12 99 6.4 14.5 0.00 0.00 0.00 91 1017.3
20260505094549 12 113 6.4 14.5 0.00 0.00 0.00 90 1017.5
20260505093051 12 41 3.2 11.3 0.00 0.00 0.00 88 1017.4
20260505091544 12 66 6.4 11.3 0.00 0.00 0.00 87 1017.7
20260505084553 13 246 4.8 14.5 0.00 0.00 0.00 84 1017.9
20260505083057 12 137 6.4 11.3 0.00 0.00 0.00 85 1018.0
20260505081551 12 167 3.2 9.7 0.00 0.00 0.00 87 1018.1
20260505080053 12 85 0.0 8.0 0.00 0.00 0.00 88 1018.3
20260505074543 12 84 1.6 6.4 0.00 0.00 0.00 89 1018.4
20260505073044 12 145 1.6 6.4 0.00 0.00 0.00 89 1018.4
20260505071539 12 81 3.2 9.7 0.00 0.00 0.00 86 1018.3
20260505070044 13 104 3.2 9.7 0.00 0.00 0.00 86 1018.1
20260505064544 13 180 1.6 8.0 0.00 0.00 0.00 87 1018.0
20260505063046 13 0 0.0 3.2 0.00 0.00 0.00 86 1017.9
20260505061546 13 134 1.6 6.4 0.00 0.00 0.00 88 1017.6
20260505060048 13 108 1.6 4.8 0.00 0.00 0.00 88 1017.6
20260505054544 12 122 1.6 4.8 0.00 0.00 0.00 86 1017.6
20260505053045 12 0 0.0 3.2 0.00 0.00 0.00 85 1017.4
20260505051543 12 159 1.6 4.8 0.00 0.00 0.00 84 1017.4
20260505041544 13 0 0.0 6.4 0.00 0.00 0.00 78 1017.0
20260505040049 13 155 1.6 8.0 0.00 0.00 0.00 78 1017.0
20260505034544 13 234 6.4 9.7 0.00 0.00 0.00 82 1016.8
20260505033102 13 229 4.8 9.7 0.00 0.00 0.00 85 1016.6
20260505031546 13 215 4.8 11.3 0.00 0.00 0.00 85 1016.5
20260505030048 13 191 1.6 4.8 0.00 0.00 0.00 85 1016.4
20260505024544 13 183 1.6 3.2 0.00 0.00 0.00 85 1016.5
20260505023056 13 188 1.6 8.0 0.00 0.00 0.00 85 1016.4
20260505021539 13 173 1.6 4.8 0.00 0.00 0.00 85 1016.3
20260505020048 13 191 0.0 8.0 0.00 0.00 0.00 84 1016.4
20260505014547 13 219 1.6 6.4 0.00 0.00 0.00 85 1016.4
20260505013047 13 131 3.2 6.4 0.00 0.00 0.00 85 1016.7
20260505011544 13 130 3.2 6.4 0.00 0.00 0.00 85 1016.7
20260505010057 13 155 0.0 3.2 0.00 0.00 0.00 84 1016.7
20260505004551 14 145 1.6 4.8 0.00 0.00 0.00 84 1016.8
20260505003045 14 163 1.6 4.8 0.00 0.00 0.00 84 1017.0
20260505001544 14 105 1.6 4.8 0.00 0.00 0.00 84 1016.9
20260505000053 14 117 3.2 11.3 0.00 0.00 0.00 84 1017.0
20260504234609 15 133 3.2 8.0 0.00 0.00 0.00 84 1017.1
20260504233052 15 153 3.2 9.7 0.00 0.00 0.00 83 1017.1
20260504231555 15 171 3.2 8.0 0.00 0.00 0.00 83 1017.2
20260504230052 15 0 0.0 4.8 0.00 0.00 0.00 85 1017.2
20260504224544 15 119 3.2 4.8 0.00 0.00 0.00 87 1017.1
20260504223044 15 0 1.6 4.8 0.00 0.00 0.00 87 1017.1
20260504221547 15 155 1.6 6.4 0.00 0.00 0.00 86 1017.0
20260504220042 15 176 1.6 9.7 0.00 0.00 0.00 87 1017.3
20260504214550 15 140 1.6 9.7 0.00 0.00 0.00 87 1017.5
20260504213051 15 139 3.2 11.3 0.00 0.00 0.00 87 1017.6
20260504211544 15 140 3.2 12.9 0.00 0.00 0.00 88 1017.4
20260504210053 15 136 4.8 9.7 0.00 0.00 0.00 88 1017.6
20260504204625 16 179 4.8 11.3 0.00 0.00 0.00 88 1017.6
20260504203051 16 161 8.0 14.5 0.00 0.00 0.00 88 1017.6
20260504201549 16 178 4.8 12.9 0.00 0.00 0.00 89 1017.4
20260504200053 16 189 3.2 11.3 0.00 0.00 0.00 89 1017.3
20260504194550 15 173 3.2 14.5 0.00 0.00 0.00 89 1017.2
20260504193049 15 184 6.4 14.5 0.00 0.00 0.00 90 1016.9
20260504191546 15 201 4.8 14.5 0.00 0.00 0.00 90 1016.7
20260504190055 15 219 4.8 16.1 0.00 0.00 0.00 90 1016.5
20260504184559 15 194 6.4 14.5 0.00 0.00 0.00 88 1016.5
20260504183053 15 134 4.8 12.9 0.00 0.00 0.00 87 1016.5
20260504181542 16 163 8.0 12.9 0.00 0.00 0.00 84 1016.3
20260504180040 16 191 1.6 6.4 0.00 0.00 0.00 80 1016.3
20260504174551 17 180 4.8 12.9 0.00 0.00 0.00 79 1016.1
20260504173048 17 203 4.8 11.3 0.00 0.00 0.00 77 1016.1
20260504171547 17 181 4.8 11.3 0.00 0.00 0.00 74 1015.7